Location: Dehesa de la Cepeda
(40.6574°N, 4.3013°W)
Time: 02:54:21
(UTC+00:00)

Explorer 7 - Visible Passes

Search period start: 06 August 2021 00:00
Search period end: 16 August 2021 00:00
Orbit: 484 x 676 km, 50.3° (Epoch: 05 August)

Date Brightness Start Highest point End Pass type
(mag) Time Alt. Az. Time Alt. Az. Time Alt. Az.
06 Aug 8.9 02:20:23 18° E 02:20:23 18° E 02:21:45 10° ENE visible
06 Aug 7.2 03:56:39 22° W 03:58:49 48° NNW 04:02:33 10° NE visible
07 Aug 8.4 02:24:26 26° E 02:24:26 26° E 02:26:21 10° ENE visible
07 Aug 7.8 04:00:42 16° W 04:03:15 34° NNW 04:06:47 10° NE visible
08 Aug 8.0 02:28:27 35° ENE 02:28:27 35° ENE 02:30:46 10° ENE visible
08 Aug 8.3 04:04:44 11° WNW 04:07:44 26° NNW 04:11:03 10° NE visible
09 Aug 7.8 02:32:27 40° NE 02:32:27 40° NE 02:35:04 10° NE visible
09 Aug 8.6 04:09:15 10° WNW 04:12:16 22° NNW 04:15:21 10° NE visible
10 Aug 7.9 02:36:26 38° N 02:36:26 38° N 02:39:19 10° NE visible
10 Aug 8.9 04:14:00 10° NW 04:16:50 20° N 04:19:44 10° NE visible
11 Aug 8.1 02:40:25 31° NNW 02:40:25 31° NNW 02:43:33 10° NE visible
11 Aug 9.0 04:18:39 10° NW 04:21:25 19° N 04:24:14 10° NE visible
12 Aug 8.4 02:44:23 25° NNW 02:44:37 25° NNW 02:47:48 10° NE visible
12 Aug 9.0 04:23:11 10° NW 04:26:00 19° N 04:28:52 10° NE visible
13 Aug 8.7 02:48:22 20° NNW 02:49:09 21° N 02:52:06 10° NE visible
13 Aug 9.0 04:27:35 10° NW 04:30:33 21° N 04:33:36 10° ENE visible
14 Aug 8.9 02:52:23 16° NNW 02:53:43 19° N 02:56:30 10° NE visible
14 Aug 8.8 04:31:53 10° NW 04:35:05 25° NNE 04:38:22 10° ENE visible
15 Aug 9.9 01:20:10 11° NE 01:20:10 11° NE 01:20:20 10° NE visible
15 Aug 9.1 02:56:26 14° NW 02:58:17 19° N 03:01:02 10° NE visible
15 Aug 8.4 04:36:09 10° NW 04:39:34 32° NNE 04:43:06 10° E visible
